Regional Weather Roundup
Issued by NWS

Home | Current Version | Previous Version | Graphics & Text | Print | Product List | Glossary On
Versions: 1 2 3 4 5 6 7 8 9 10 11 12 13 14 15 16 17 18 19 20 21 22 23 24 25 26 27 28 29 30 31 32 33 34 35 36 37 38 39 40 41 42 43 44 45 46 47 48 49 50
106
ASUS43 KDTX 270801
RWRMI
MICHIGAN HOURLY REGIONAL WEATHER ROUNDUP
NATIONAL WEATHER SERVICE DETROIT/PONTIAC MI
400 AM EDT TUE SEP 27 2016

NOTE: "FAIR" INDICATES FEW OR NO CLOUDS BELOW 12,000 FEET WITH NO
SIGNIFICANT WEATHER AND/OR OBSTRUCTION TO VISIBILITY.

MIZ047>049-052>055-059>063-066>070-074>076-081>083-270900-
SOUTHEAST LOWER MICHIGAN

CITY           SKY/WX    TMP DP  RH WIND       PRES   REMARKS
ADRIAN         CLEAR     47  41  80 SW6       29.88F
ALMA           PTCLDY    48  45  88 SW7       29.78F
ANN ARBOR      CLEAR     48  41  76 SW8       29.85F
BAD AXE        PTCLDY    47  43  84 S7        29.77F
CARO           CLEAR     45  43  93 SW5       29.77F
DETROIT CITY   CLEAR     55  40  56 SW9       29.84F
DETROIT        CLEAR     51  42  71 S9        29.86F
GROSSE ILE     CLEAR     55  40  57 SW12G17   29.85F
HILLSDALE      CLEAR     50  37  62 SW7       29.86F
HOWELL         CLEAR     50  40  68 S6        29.82F

CITY           SKY/WX    TMP DP  RH WIND       PRES   REMARKS
JACKSON        CLEAR     52  40  63 SW8       29.84F
LAMBERTVILLE   CLEAR     53  40  61 SW8       29.89F
LANSING        PTCLDY    52  40  63 SW12      29.81F
LAPEER         FAIR      50  43  75 SW7       29.81F
MASON          CLEAR     50  40  69 S3        29.82F
MONROE         CLEAR     52  41  67 SW6       29.87S
MT. CLEMENS    CLEAR     54  41  60 SW9       29.81F
PONTIAC        CLEAR     53  40  61 SW8       29.82F
PORT HURON     PTCLDY    48  43  81 CALM      29.83F
TRI CITIES     PTCLDY    52  44  74 SW8       29.78F
MIDLAND        FAIR      48  42  79 SW5       29.75F
TROY           CLEAR     53  40  60 SW7       29.85F
SAGINAW HB     CLEAR     50  43  76 S8        29.77F
$$
MIZ043>046-050>051-056>058-064>065-071>073-077>080-270900-
SOUTHWEST LOWER MICHIGAN

CITY           SKY/WX    TMP DP  RH WIND       PRES   REMARKS
BATTLE CREEK   CLEAR     51  42  71 SW13      29.83F
BENTON HARBOR  CLEAR     63  40  42 W16G24    29.84F
BIG RAPIDS     CLOUDY    53  43  70 SW6       29.73F
COLDWATER      CLEAR     51  36  56 SW8       29.86F
FREMONT        FAIR      53  35  50 SW5       29.74F
HOLLAND        PTCLDY    64  38  38 W18G26    29.79F
GRAND RAPIDS   PTCLDY    51  42  71 S10       29.78F
IONIA          FAIR      51  40  67 S10       29.78F
KALAMAZOO      CLEAR     53  40  61 SW12      29.84F
LUDINGTON      PTCLDY    59  43  55 W13       29.71F
MARSHALL       CLEAR     53  39  59 SW8       29.84F
MOUNT PLEASANT PTCLDY    53  41  65 SW7       29.74F
MUSKEGON       CLEAR     62  42  47 W15G26    29.76F
SOUTH HAVEN    CLEAR     65  37  34 W15G24    29.81F
$$
MIZ016>042-270900-
NORTHERN LOWER MICHIGAN

CITY           SKY/WX    TMP DP  RH WIND       PRES   REMARKS
ALPENA         CLOUDY    52  44  74 S8        29.66F
BEAVER ISLAND  RAIN      55  49  80 W23G30    29.57F
BELLAIRE       MIX PCPN  52  50  91 SW3       29.64F
CADILLAC       PTCLDY    50  42  75 SW8       29.69F
CHARLEVOIX     CLOUDY    55  48  78 SW14G22   29.62F
FRANKFORT      CLOUDY    59  43  55 W12G20    29.66F
GAYLORD        CLOUDY    50  45  83 SW10      29.64F
GRAYLING       CLOUDY    52  44  73 SW7       29.67F
HARBOR SPRINGS RAIN      54  51  90 SW13G28   29.59F
HOUGHTON LAKE  PTCLDY    51  43  74 SW13      29.70F
MANISTEE       CLOUDY    58  44  60 W17G24    29.68F
OSCODA         PTCLDY    50  42  75 SW13      29.70F
PELLSTON       LGT RAIN  53  48  83 SW10      29.59F
ROGERS CITY    CLOUDY    53  46  78 SW10G17   29.63F
TRAVERSE CITY  CLOUDY    54  47  77 S5        29.64F
$$
MIZ007>008-015-270900-
EASTERN UPPER MICHIGAN

CITY           SKY/WX    TMP DP  RH WIND       PRES   REMARKS
KINROSS        LGT RAIN  51  47  86 SW6       29.55F
MACKINAC ISLAN CLOUDY    55  49  83 SW17G29   29.55F
NEWBERRY       MOCLDY    49  48  96 SW13G18   29.53F
S. S. MARIE    CLOUDY    51  47  86 SW9       29.54F
MUNISING         N/A     51  48  89 SW5       29.51F
$$
MIZ004>006-011>014-085-270900-
CENTRAL UPPER MICHIGAN

CITY           SKY/WX    TMP DP  RH WIND       PRES   REMARKS
MANISTIQUE     CLOUDY    52  46  78 SW9G17    29.55F
ESCANABA       CLOUDY    53  46  77 SW13      29.57F
MENOMINEE      CLOUDY    53  43  68 W6        29.64F
SAWYER-GWINN   CLOUDY    49  46  91 SW13      29.52F
$$
MIZ001>003-009>011-084-270900-
WESTERN UPPER MICHIGAN

CITY           SKY/WX    TMP DP  RH WIND       PRES   REMARKS
IRON MOUNTAIN  CLOUDY    51  44  77 W9        29.58F
HOUGHTON       LGT RAIN  51  47  86 W21G30    29.47F
COPPER HARBOR    N/A     54  48  80 NW14G22   29.43S
IRONWOOD       RAIN      49  47  93 W16G22    29.61F
$$

ABBREVIATIONS USED IN REMARKS
   TC - TEMPERATURE IN CELSIUS
  WCI - WIND CHILL INDEX
   HX - HEAT INDEX
  VSB - VISIBILITY





USA.gov is the U.S. government's official web portal to all federal, state and local government web resources and services.